User: anonymous   Login
Location: Carnetin
(48.9010°N, 2.7059°E)
Time: 05:31:06
(UTC+00:00)
Language:

Cosmos 2346 Rocket - Orbit

View from above orbital plane
View from above orbital plane
View from above satellite
View from above satellite

Ground track
Ground track

The orbit data is extracted from the following two-line orbital elements,

1 24955U 97052C   22017.45260762  .00000083  00000-0  62829-4 0  9994
2 24955  82.9206  93.1337 0031184  90.1044 270.3689 13.81577459225830
Epoch (UTC): 17 January 2022 10:51:45
Eccentricity: 0.0031184
inclination: 82.9206°
perigee height: 935 km
apogee height: 981 km
right ascension of ascending node: 93.1337°
argument of perigee: 90.1044°
revolutions per day: 13.81577459
mean anomaly at epoch: 270.3689°
orbit number at epoch: 22583

The dashed part of the orbit path shows where the satellite is in the earth's shadow,  

DLR